| time (UTC) | temp F | wind direction | speed MPH | gust MPH | rain 1hr in | rain 24hr in | rain mn in | humidity % | barometer mb |
| 20260504191833 | 75 | 265 | 2.0 | 2.0 | 0.00 | 0.00 | 0.00 | 37 | 1012.5 |
| 20260504191330 | 74 | 269 | 2.0 | 2.0 | 0.00 | 0.00 | 0.00 | 35 | 1012.6 |
| 20260504190826 | 74 | 305 | 1.0 | 3.0 | 0.00 | 0.00 | 0.00 | 37 | 1012.5 |
| 20260504190322 | 74 | 217 | 1.0 | 1.0 | 0.00 | 0.00 | 0.00 | 35 | 1013.0 |
| 20260504185819 | 75 | 293 | 1.0 | 1.0 | 0.00 | 0.00 | 0.00 | 37 | 1013.0 |
| 20260504185316 | 75 | 186 | 1.0 | 2.0 | 0.00 | 0.00 | 0.00 | 35 | 1013.1 |
| 20260504184812 | 74 | 250 | 1.0 | 2.0 | 0.00 | 0.00 | 0.00 | 36 | 1013.0 |
| 20260504184308 | 75 | 359 | 1.0 | 1.0 | 0.00 | 0.00 | 0.00 | 35 | 1013.4 |
| 20260504183803 | 74 | 227 | 0.0 | 1.0 | 0.00 | 0.00 | 0.00 | 36 | 1013.4 |
| 20260504183301 | 74 | 218 | 1.0 | 1.0 | 0.00 | 0.00 | 0.00 | 36 | 1013.5 |
| 20260504182759 | 75 | 188 | 1.0 | 1.0 | 0.00 | 0.00 | 0.00 | 35 | 1013.5 |
| 20260504182255 | 74 | 299 | 2.0 | 2.0 | 0.00 | 0.00 | 0.00 | 38 | 1013.5 |
| 20260504181753 | 74 | 264 | 3.0 | 5.0 | 0.00 | 0.00 | 0.00 | 35 | 1013.7 |
| 20260504181250 | 73 | 235 | 0.0 | 1.0 | 0.00 | 0.00 | 0.00 | 37 | 1013.7 |
| 20260504180749 | 73 | 327 | 2.0 | 2.0 | 0.00 | 0.00 | 0.00 | 36 | 1013.7 |
| 20260504180248 | 72 | 254 | 1.0 | 2.0 | 0.00 | 0.00 | 0.00 | 40 | 1013.9 |
| 20260504175745 | 73 | 317 | 3.0 | 5.0 | 0.00 | 0.00 | 0.00 | 37 | 1014.0 |
| 20260504175241 | 73 | 355 | 2.0 | 3.0 | 0.00 | 0.00 | 0.00 | 35 | 1014.1 |
| 20260504174739 | 73 | 7 | 2.0 | 2.0 | 0.00 | 0.00 | 0.00 | 36 | 1014.0 |
| 20260504174237 | 73 | 234 | 2.0 | 3.0 | 0.00 | 0.00 | 0.00 | 34 | 1014.1 |
| 20260504173733 | 73 | 339 | 1.0 | 1.0 | 0.00 | 0.00 | 0.00 | 37 | 1014.0 |
| 20260504173230 | 73 | 285 | 1.0 | 2.0 | 0.00 | 0.00 | 0.00 | 37 | 1014.3 |
| 20260504172727 | 73 | 145 | 2.0 | 3.0 | 0.00 | 0.00 | 0.00 | 37 | 1014.3 |
| 20260504172224 | 73 | 258 | 1.0 | 1.0 | 0.00 | 0.00 | 0.00 | 41 | 1014.2 |
| 20260504171720 | 71 | 299 | 1.0 | 3.0 | 0.00 | 0.00 | 0.00 | 37 | 1014.3 |
| 20260504171217 | 71 | 296 | 1.0 | 1.0 | 0.00 | 0.00 | 0.00 | 40 | 1014.4 |
| 20260504170714 | 72 | 228 | 1.0 | 2.0 | 0.00 | 0.00 | 0.00 | 36 | 1014.7 |
| 20260504170211 | 72 | 270 | 2.0 | 2.0 | 0.00 | 0.00 | 0.00 | 37 | 1014.6 |
| 20260504160129 | 69 | 315 | 3.0 | 3.0 | 0.00 | 0.00 | 0.00 | 36 | 1015.3 |
| 20260504151057 | 68 | 245 | 1.0 | 1.0 | 0.00 | 0.00 | 0.00 | 37 | 1015.5 |
| 20260504150554 | 68 | 268 | 2.0 | 2.0 | 0.00 | 0.00 | 0.00 | 39 | 1015.7 |
| 20260504141014 | 66 | 176 | 2.0 | 2.0 | 0.00 | 0.00 | 0.00 | 42 | 1015.6 |
| 20260504140511 | 67 | 187 | 1.0 | 2.0 | 0.00 | 0.00 | 0.00 | 42 | 1015.8 |
| 20260504130435 | 58 | 312 | 1.0 | 1.0 | 0.00 | 0.00 | 0.00 | 51 | 1016.2 |
| 20260504110323 | 49 | 212 | 0.0 | 0.0 | 0.00 | 0.00 | 0.00 | 67 | 1016.6 |
| 20260504100240 | 48 | 212 | 0.0 | 1.0 | 0.00 | 0.00 | 0.00 | 68 | 1016.8 |
| 20260504081633 | 48 | 215 | 0.0 | 0.0 | 0.00 | 0.00 | 0.00 | 70 | 1017.1 |
| 20260504081130 | 47 | 226 | 0.0 | 0.0 | 0.00 | 0.00 | 0.00 | 69 | 1017.1 |
| 20260504080626 | 48 | 213 | 0.0 | 1.0 | 0.00 | 0.00 | 0.00 | 72 | 1017.0 |
| 20260504080123 | 48 | 222 | 0.0 | 0.0 | 0.00 | 0.00 | 0.00 | 72 | 1017.1 |
| 20260504050439 | 48 | 199 | 0.0 | 0.0 | 0.00 | 0.00 | 0.00 | 53 | 1017.4 |
| 20260504045936 | 48 | 218 | 0.0 | 0.0 | 0.00 | 0.00 | 0.00 | 55 | 1017.3 |
| 20260504045432 | 47 | 220 | 0.0 | 0.0 | 0.00 | 0.00 | 0.00 | 58 | 1017.4 |
| 20260504044928 | 46 | 217 | 0.0 | 0.0 | 0.00 | 0.00 | 0.00 | 59 | 1017.3 |
| 20260504044426 | 46 | 211 | 0.0 | 0.0 | 0.00 | 0.00 | 0.00 | 61 | 1017.5 |
| 20260504043923 | 46 | 209 | 0.0 | 0.0 | 0.00 | 0.00 | 0.00 | 60 | 1017.5 |
| 20260504043420 | 46 | 218 | 0.0 | 0.0 | 0.00 | 0.00 | 0.00 | 60 | 1017.2 |
| 20260504042917 | 45 | 219 | 0.0 | 0.0 | 0.00 | 0.00 | 0.00 | 61 | 1017.2 |
| 20260504042414 | 46 | 219 | 0.0 | 0.0 | 0.00 | 0.00 | 0.00 | 61 | 1017.3 |
| 20260504041910 | 46 | 217 | 0.0 | 0.0 | 0.00 | 0.00 | 0.00 | 62 | 1017.3 |
| 20260504041406 | 46 | 219 | 0.0 | 0.0 | 0.00 | 0.00 | 0.00 | 62 | 1017.3 |
| 20260504040903 | 46 | 219 | 0.0 | 0.0 | 0.00 | 0.00 | 0.00 | 63 | 1017.2 |
| 20260504040400 | 46 | 219 | 0.0 | 0.0 | 0.00 | 0.00 | 0.00 | 62 | 1017.4 |
| 20260504035856 | 46 | 219 | 0.0 | 0.0 | 0.00 | 0.00 | 0.00 | 63 | 1017.4 |
| 20260504035354 | 46 | 219 | 0.0 | 0.0 | 0.00 | 0.00 | 0.00 | 63 | 1017.4 |
| 20260504034850 | 46 | 213 | 0.0 | 0.0 | 0.00 | 0.00 | 0.00 | 62 | 1017.3 |
| 20260504034348 | 46 | 220 | 0.0 | 0.0 | 0.00 | 0.00 | 0.00 | 62 | 1017.3 |
| 20260504033844 | 46 | 224 | 0.0 | 0.0 | 0.00 | 0.00 | 0.00 | 63 | 1017.3 |
| 20260504033343 | 46 | 217 | 0.0 | 0.0 | 0.00 | 0.00 | 0.00 | 62 | 1017.1 |
| 20260504032839 | 46 | 211 | 0.0 | 1.0 | 0.00 | 0.00 | 0.00 | 63 | 1017.1 |
| 20260504032336 | 45 | 219 | 0.0 | 0.0 | 0.00 | 0.00 | 0.00 | 64 | 1017.0 |
| 20260504031833 | 45 | 219 | 0.0 | 0.0 | 0.00 | 0.00 | 0.00 | 65 | 1017.0 |
| 20260504031330 | 44 | 224 | 0.0 | 0.0 | 0.00 | 0.00 | 0.00 | 68 | 1017.1 |
| 20260504030826 | 44 | 218 | 0.0 | 0.0 | 0.00 | 0.00 | 0.00 | 68 | 1016.7 |
| 20260504030324 | 44 | 223 | 0.0 | 0.0 | 0.00 | 0.00 | 0.00 | 69 | 1016.9 |
| 20260504025820 | 44 | 226 | 0.0 | 0.0 | 0.00 | 0.00 | 0.00 | 69 | 1016.8 |
| 20260504025317 | 44 | 225 | 0.0 | 0.0 | 0.00 | 0.00 | 0.00 | 69 | 1016.9 |
| 20260504024814 | 44 | 226 | 0.0 | 0.0 | 0.00 | 0.00 | 0.00 | 70 | 1016.9 |
| 20260504024310 | 44 | 225 | 0.0 | 0.0 | 0.00 | 0.00 | 0.00 | 70 | 1016.9 |
| 20260504023807 | 44 | 220 | 0.0 | 0.0 | 0.00 | 0.00 | 0.00 | 70 | 1016.7 |
| 20260504023303 | 44 | 219 | 0.0 | 0.0 | 0.00 | 0.00 | 0.00 | 71 | 1016.7 |
| 20260504022759 | 45 | 217 | 0.0 | 0.0 | 0.00 | 0.00 | 0.00 | 70 | 1016.8 |
| 20260504022256 | 45 | 218 | 0.0 | 0.0 | 0.00 | 0.00 | 0.00 | 69 | 1017.0 |
| 20260504021753 | 45 | 218 | 0.0 | 0.0 | 0.00 | 0.00 | 0.00 | 68 | 1016.6 |
| 20260504021250 | 46 | 221 | 0.0 | 0.0 | 0.00 | 0.00 | 0.00 | 67 | 1016.9 |
| 20260504020747 | 46 | 222 | 0.0 | 0.0 | 0.00 | 0.00 | 0.00 | 65 | 1016.8 |
| 20260504020243 | 46 | 223 | 0.0 | 0.0 | 0.00 | 0.00 | 0.00 | 65 | 1016.7 |
| 20260504015739 | 46 | 221 | 0.0 | 0.0 | 0.00 | 0.00 | 0.00 | 65 | 1016.8 |
| 20260504015236 | 46 | 221 | 0.0 | 0.0 | 0.00 | 0.00 | 0.00 | 65 | 1016.8 |
| 20260504014732 | 46 | 220 | 0.0 | 0.0 | 0.00 | 0.00 | 0.00 | 65 | 1016.6 |
| 20260504014229 | 47 | 220 | 0.0 | 0.0 | 0.00 | 0.00 | 0.00 | 63 | 1016.5 |
| 20260504013727 | 47 | 222 | 0.0 | 0.0 | 0.00 | 0.00 | 0.00 | 63 | 1016.7 |
| 20260504013224 | 47 | 222 | 0.0 | 0.0 | 0.00 | 0.00 | 0.00 | 62 | 1016.8 |
| 20260504012720 | 48 | 222 | 0.0 | 0.0 | 0.00 | 0.00 | 0.00 | 61 | 1016.5 |
| 20260504012218 | 48 | 224 | 0.0 | 0.0 | 0.00 | 0.00 | 0.00 | 60 | 1016.5 |
| 20260504011715 | 48 | 224 | 0.0 | 0.0 | 0.00 | 0.00 | 0.00 | 59 | 1016.5 |
| 20260504011212 | 48 | 224 | 0.0 | 0.0 | 0.00 | 0.00 | 0.00 | 59 | 1016.6 |
| 20260504010708 | 48 | 220 | 0.0 | 0.0 | 0.00 | 0.00 | 0.00 | 58 | 1016.7 |
| 20260504010203 | 49 | 220 | 0.0 | 0.0 | 0.00 | 0.00 | 0.00 | 58 | 1016.6 |
| 20260504005700 | 49 | 220 | 0.0 | 0.0 | 0.00 | 0.00 | 0.00 | 55 | 1016.6 |
| 20260504005157 | 49 | 219 | 0.0 | 0.0 | 0.00 | 0.00 | 0.00 | 54 | 1016.4 |
| 20260504004655 | 50 | 219 | 0.0 | 0.0 | 0.00 | 0.00 | 0.00 | 54 | 1016.3 |
| 20260504004152 | 50 | 218 | 0.0 | 0.0 | 0.00 | 0.00 | 0.00 | 53 | 1016.4 |
| 20260504003648 | 51 | 217 | 0.0 | 0.0 | 0.00 | 0.00 | 0.00 | 51 | 1016.0 |
| 20260504003145 | 51 | 217 | 0.0 | 0.0 | 0.00 | 0.00 | 0.00 | 50 | 1016.1 |
| 20260504002642 | 52 | 217 | 0.0 | 0.0 | 0.00 | 0.00 | 0.00 | 51 | 1016.0 |
| 20260504002139 | 52 | 223 | 0.0 | 0.0 | 0.00 | 0.00 | 0.00 | 46 | 1016.2 |
| 20260504001637 | 53 | 220 | 0.0 | 0.0 | 0.00 | 0.00 | 0.00 | 46 | 1016.1 |
| 20260504001133 | 53 | 220 | 0.0 | 0.0 | 0.00 | 0.00 | 0.00 | 45 | 1016.2 |
| 20260504000630 | 54 | 220 | 0.0 | 0.0 | 0.00 | 0.00 | 0.00 | 45 | 1016.0 |
| 20260504000128 | 55 | 220 | 0.0 | 0.0 | 0.00 | 0.00 | 0.00 | 44 | 1015.8 |
| 20260503235626 | 55 | 220 | 0.0 | 0.0 | 0.00 | 0.00 | 0.00 | 41 | 1015.8 |
| 20260503235122 | 56 | 215 | 0.0 | 0.0 | 0.00 | 0.00 | 0.00 | 41 | 1016.0 |
| 20260503234620 | 57 | 210 | 0.0 | 0.0 | 0.00 | 0.00 | 0.00 | 39 | 1015.9 |
| 20260503234118 | 58 | 220 | 0.0 | 0.0 | 0.00 | 0.00 | 0.00 | 34 | 1015.7 |
| 20260503233615 | 58 | 234 | 1.0 | 1.0 | 0.00 | 0.00 | 0.00 | 34 | 1015.7 |
| 20260503233110 | 58 | 236 | 0.0 | 0.0 | 0.00 | 0.00 | 0.00 | 33 | 1015.9 |
| 20260503232608 | 59 | 234 | 0.0 | 1.0 | 0.00 | 0.00 | 0.00 | 33 | 1015.5 |
| 20260503232105 | 59 | 235 | 0.0 | 0.0 | 0.00 | 0.00 | 0.00 | 34 | 1015.7 |
| 20260503231603 | 59 | 229 | 0.0 | 0.0 | 0.00 | 0.00 | 0.00 | 35 | 1015.6 |
| 20260503231059 | 59 | 241 | 0.0 | 1.0 | 0.00 | 0.00 | 0.00 | 34 | 1015.8 |
| 20260503230556 | 59 | 220 | 0.0 | 0.0 | 0.00 | 0.00 | 0.00 | 32 | 1015.5 |
| 20260503230053 | 59 | 234 | 1.0 | 1.0 | 0.00 | 0.00 | 0.00 | 34 | 1015.5 |
| 20260503225550 | 60 | 235 | 0.0 | 0.0 | 0.00 | 0.00 | 0.00 | 33 | 1015.6 |
| 20260503225045 | 60 | 204 | 0.0 | 0.0 | 0.00 | 0.00 | 0.00 | 32 | 1015.6 |
| 20260503224543 | 60 | 215 | 0.0 | 0.0 | 0.00 | 0.00 | 0.00 | 33 | 1015.6 |
| 20260503224040 | 60 | 236 | 1.0 | 2.0 | 0.00 | 0.00 | 0.00 | 32 | 1015.6 |
| 20260503223539 | 60 | 222 | 1.0 | 1.0 | 0.00 | 0.00 | 0.00 | 31 | 1015.6 |
| 20260503223033 | 60 | 156 | 1.0 | 2.0 | 0.00 | 0.00 | 0.00 | 31 | 1015.7 |
| 20260503222532 | 61 | 237 | 1.0 | 1.0 | 0.00 | 0.00 | 0.00 | 30 | 1015.7 |
| 20260503222030 | 62 | 239 | 2.0 | 3.0 | 0.00 | 0.00 | 0.00 | 29 | 1016.0 |
| 20260503221528 | 63 | 326 | 2.0 | 2.0 | 0.00 | 0.00 | 0.00 | 28 | 1015.8 |
| 20260503221025 | 62 | 16 | 2.0 | 3.0 | 0.00 | 0.00 | 0.00 | 29 | 1015.9 |
| 20260503220521 | 63 | 255 | 1.0 | 1.0 | 0.00 | 0.00 | 0.00 | 28 | 1015.8 |
| 20260503220018 | 63 | 239 | 0.0 | 0.0 | 0.00 | 0.00 | 0.00 | 30 | 1015.6 |
| 20260503215515 | 64 | 246 | 0.0 | 1.0 | 0.00 | 0.00 | 0.00 | 28 | 1015.6 |
| 20260503215012 | 63 | 242 | 1.0 | 1.0 | 0.00 | 0.00 | 0.00 | 29 | 1015.7 |
| 20260503214510 | 63 | 234 | 1.0 | 2.0 | 0.00 | 0.00 | 0.00 | 29 | 1015.8 |
| 20260503214007 | 62 | 245 | 0.0 | 1.0 | 0.00 | 0.00 | 0.00 | 30 | 1016.0 |
| 20260503213505 | 64 | 2 | 2.0 | 3.0 | 0.00 | 0.00 | 0.00 | 30 | 1015.8 |
| 20260503213001 | 63 | 233 | 0.0 | 0.0 | 0.00 | 0.00 | 0.00 | 32 | 1015.8 |
| 20260503212459 | 63 | 311 | 1.0 | 2.0 | 0.00 | 0.00 | 0.00 | 28 | 1016.0 |
| 20260503211956 | 62 | 241 | 1.0 | 2.0 | 0.00 | 0.00 | 0.00 | 31 | 1015.8 |
| 20260503211453 | 62 | 234 | 2.0 | 3.0 | 0.00 | 0.00 | 0.00 | 31 | 1015.8 |
| 20260503210949 | 62 | 240 | 0.0 | 1.0 | 0.00 | 0.00 | 0.00 | 31 | 1015.7 |
| 20260503210445 | 61 | 245 | 1.0 | 1.0 | 0.00 | 0.00 | 0.00 | 31 | 1015.9 |
| 20260503205940 | 62 | 258 | 2.0 | 2.0 | 0.00 | 0.00 | 0.00 | 29 | 1015.9 |
| 20260503205437 | 60 | 248 | 0.0 | 1.0 | 0.00 | 0.00 | 0.00 | 33 | 1015.8 |
| 20260503204933 | 60 | 269 | 2.0 | 2.0 | 0.00 | 0.00 | 0.00 | 30 | 1015.7 |
| 20260503204431 | 61 | 317 | 1.0 | 1.0 | 0.00 | 0.00 | 0.00 | 31 | 1016.0 |
| 20260503203928 | 60 | 252 | 0.0 | 1.0 | 0.00 | 0.00 | 0.00 | 32 | 1015.7 |
| 20260503203425 | 60 | 239 | 0.0 | 1.0 | 0.00 | 0.00 | 0.00 | 33 | 1015.8 |
| 20260503202922 | 62 | 241 | 3.0 | 5.0 | 0.00 | 0.00 | 0.00 | 30 | 1015.8 |
| 20260503202420 | 61 | 256 | 2.0 | 2.0 | 0.00 | 0.00 | 0.00 | 30 | 1015.8 |
| 20260503201919 | 61 | 228 | 2.0 | 2.0 | 0.00 | 0.00 | 0.00 | 31 | 1015.9 |
| 20260503201415 | 60 | 241 | 1.0 | 1.0 | 0.00 | 0.00 | 0.00 | 31 | 1016.1 |
| 20260503200913 | 60 | 250 | 3.0 | 3.0 | 0.00 | 0.00 | 0.00 | 35 | 1016.2 |
| 20260503200409 | 60 | 261 | 1.0 | 2.0 | 0.00 | 0.00 | 0.00 | 34 | 1016.0 |
| 20260503195906 | 60 | 278 | 1.0 | 2.0 | 0.00 | 0.00 | 0.00 | 33 | 1016.3 |
| 20260503195403 | 60 | 204 | 3.0 | 5.0 | 0.00 | 0.00 | 0.00 | 31 | 1016.3 |
| 20260503194859 | 61 | 281 | 1.0 | 2.0 | 0.00 | 0.00 | 0.00 | 31 | 1016.4 |
| 20260503194356 | 60 | 358 | 3.0 | 3.0 | 0.00 | 0.00 | 0.00 | 35 | 1016.4 |
| 20260503193852 | 60 | 254 | 1.0 | 1.0 | 0.00 | 0.00 | 0.00 | 32 | 1016.6 |
| 20260503193347 | 60 | 142 | 3.0 | 3.0 | 0.00 | 0.00 | 0.00 | 34 | 1016.7 |
| 20260503192843 | 60 | 178 | 2.0 | 2.0 | 0.00 | 0.00 | 0.00 | 34 | 1016.7 |
| 20260503192339 | 59 | 236 | 3.0 | 5.0 | 0.00 | 0.00 | 0.00 | 35 | 1016.7 |